Weather History for George, South Africa

Change the Weather History Date:

Thursday, September 15, 2011

  Actual Average Record
Temperature  
Mean Temperature 59 °F -  
Max Temperature 68 °F 66 °F 75 °F (2013)
Min Temperature 50 °F 48 °F 42 °F (2000)
Degree Days  
Heating Degree Days 6    
Growing Degree Days 9 (Base 50)    
Moisture  
Dew Point 49 °F    
Average Humidity 76    
Maximum Humidity 100    
Minimum Humidity 45    
Precipitation  
Precipitation 0.00 in - - ()
Sea Level Pressure  
Sea Level Pressure 30.14 in    
Wind  
Wind Speed 10 mph ()    
Max Wind Speed 28 mph    
Max Gust Speed -    
Visibility 7.5 miles    
Events      
Averages and records for this station are not official NWS values.
T = Trace of Precipitation, MM = Missing Value Source: Averaged Metar Reports

Daily Weather History Graph

Daily Weather History Graph

Search for Another Location

Airport:

Trip Planner

Search our weather history database for the weather conditions in past years. The results will help you decide how hot, cold, wet, or windy it might be!

Date:

Astronomy

Sep. 15, 2011 Rise Set
Actual Time 6:30 AM SAST 6:21 PM SAST
Civil Twilight 6:05 AM SAST 6:46 PM SAST
Nautical Twilight 5:36 AM SAST 7:15 PM SAST
Astronomical Twilight 5:07 AM SAST 7:44 PM SAST
Moon 9:20 PM SAST (9/15) 7:39 AM SAST (9/15)
Length of Visible Light 12h 41m
Length of Day
11h 51m
Waning Gibbous, 92% of the Moon is Illuminated
Sep 15
Waning Gibbous
Sep 20
Last Quarter
Sep 27
New
Oct 4
First Quarter
Oct 12
Full

Hourly Weather History & Observations

Time (SAST) Temp. Dew Point Humidity Pressure Visibility Wind Dir Wind Speed Gust Speed Precip Events Conditions
12:00 AM 53.6 °F 53.6 °F 100% 30.06 in 5.6 mi North 3.5 mph - N/A   Overcast
1:00 AM 53.6 °F 51.8 °F 94% 30.04 in 6.2 mi North 3.5 mph - N/A   Mostly Cloudy
2:00 AM 53 °F 53 °F 99% 30.05 in 6 mi North 4.6 mph - -  
2:00 AM 53.6 °F 53.6 °F 100% 30.04 in 6.2 mi North 4.6 mph - N/A   Overcast
3:00 AM 53.6 °F 51.8 °F 94% 30.04 in 6.2 mi NNW 5.8 mph - N/A   Overcast
4:00 AM 51.8 °F 50.0 °F 94% 30.01 in 6.2 mi NW 4.6 mph - N/A   Partly Cloudy
5:00 AM 51 °F 49 °F 92% 30.05 in 12 mi NW 5.8 mph - -   Partly Cloudy
5:00 AM 50.0 °F 50.0 °F 100% 30.04 in 6.2 mi NW 5.8 mph - N/A   Scattered Clouds
6:00 AM 51.8 °F 48.2 °F 88% 30.04 in 6.2 mi WNW 8.1 mph - N/A   Scattered Clouds
7:00 AM 51.8 °F 48.2 °F 88% 30.06 in 6.2 mi WNW 8.1 mph - N/A   Scattered Clouds
8:00 AM 56 °F 50 °F 74% 30.10 in 12 mi NW 10.4 mph - -   Partly Cloudy
8:00 AM 57.2 °F 50.0 °F 77% 30.09 in 6.2 mi NW 9.2 mph - N/A   Mostly Cloudy
8:51 AM 60.8 °F 50.0 °F 68% 30.09 in 6.2 mi WNW 16.1 mph - N/A   Partly Cloudy
9:00 AM 60.8 °F 50.0 °F 68% 30.09 in 6.2 mi WNW 15.0 mph - N/A   Partly Cloudy
10:00 AM 62.6 °F 48.2 °F 59% 30.09 in 6.2 mi West 19.6 mph - N/A   Scattered Clouds
11:00 AM 64 °F 48 °F 45% 30.11 in 19 mi West 23.0 mph - -   Mostly Cloudy
11:00 AM 64.4 °F 46.4 °F 52% 30.09 in 6.2 mi West 23.0 mph - N/A   Mostly Cloudy
12:00 PM 66.2 °F 48.2 °F 52% 30.12 in 6.2 mi West 27.6 mph - N/A   Scattered Clouds
1:00 PM 62.6 °F 51.8 °F 68% 30.12 in 6.2 mi SW 26.5 mph - N/A   Scattered Clouds
2:00 PM 62 °F 51 °F 57% 30.14 in 12 mi SW 20.7 mph - -   Mostly Cloudy
2:00 PM 60.8 °F 50.0 °F 68% 30.12 in 6.2 mi SW 20.7 mph - N/A   Scattered Clouds
3:00 PM 60.8 °F 50.0 °F 68% 30.15 in 6.2 mi SSW 24.2 mph - N/A   Partly Cloudy
4:00 PM 60.8 °F 48.2 °F 63% 30.18 in 6.2 mi SW 21.9 mph - N/A   Partly Cloudy
5:00 PM 59 °F 48 °F 58% 30.22 in 12 mi SW 20.7 mph - -   Scattered Clouds
5:00 PM 59.0 °F 48.2 °F 67% 30.21 in 6.2 mi SW 20.7 mph - N/A   Partly Cloudy
6:00 PM 57.2 °F 46.4 °F 67% 30.24 in 6.2 mi SW 15.0 mph - N/A   Partly Cloudy
7:00 PM 53.6 °F 46.4 °F 77% 30.27 in 6.2 mi West 9.2 mph - N/A   Partly Cloudy
8:00 PM 53 °F 46 °F 69% 30.31 in 12 mi NW 8.1 mph - -   Scattered Clouds
8:00 PM 53.6 °F 46.4 °F 77% 30.30 in 6.2 mi WNW 8.1 mph - N/A   Partly Cloudy
9:00 PM 51.8 °F 46.4 °F 82% 30.30 in 6.2 mi WNW 9.2 mph - N/A   Mostly Cloudy
10:00 PM 51.8 °F 46.4 °F 82% 30.33 in 6.2 mi NW 8.1 mph - N/A   Mostly Cloudy
11:00 PM 53.6 °F 46.4 °F 77% 30.33 in 6.2 mi WNW 9.2 mph - N/A   Mostly Cloudy